• Join FlightAware (Why Join?)
  • Login
  • US Flag 
02:52PM EDT


 

Airport Tracker/Info


-or-


 

Live Flight TrackerFlight Track Log ✈ FSR411 ✈ 25-Jul-2013 ✈ KCMI - KVQQ

Flight Track Log - Related Links

Times and Time Zones

All times are in EDT time to prevent confusion due to time zone crossing. See the FSR411 flight status page for this flight to view local times or setup timezone preferences in your user account.

Time Position Orientation Groundspeed Altitude Reporting Facility
EDT Latitude Longitude Course Direction KTS MPH feet Rate Location/Type
10:25AM 40.1175 -88.2850 150° Southeast 225 259 41,000  Level Indianapolis Center
10:26AM 40.1714 -88.2269 39° Northeast 286 329 7,000 -15,180 Descending Indianapolis Center
10:27AM 40.1194 -88.1514 132° Southeast 300 345 9,700 1,560 Climbing Indianapolis Center
10:28AM 40.0428 -88.0975 152° Southeast 324 373 10,300 1,800 Climbing Chicago Center
10:29AM 39.9528 -88.0306 150° Southeast 366 421 13,500 3,180 Climbing Chicago Center
10:30AM 39.4377 -87.8208 150° Southeast  Level FlightAware Approximate
10:30AM 39.8569 -87.9589 150° Southeast 390 449 16,900  Level Chicago Center
10:31AM 39.7556 -87.8858 151° Southeast 404 465 20,000 2,880 Climbing Indianapolis Center
10:32AM 39.6300 -87.7931 150° Southeast 426 490 22,900 2,460 Climbing Indianapolis Center
10:33AM 39.5211 -87.7128 150° Southeast 447 514 25,100 1,980 Climbing Indianapolis Center
10:34AM 39.4086 -87.6319 151° Southeast 463 533 27,100 1,320 Climbing Indianapolis Center
10:35AM 39.2933 -87.5475 150° Southeast 477 549 27,900 420 Climbing Indianapolis Center
10:36AM 39.1781 -87.4631 150° Southeast 480 552 28,000 300 Climbing Indianapolis Center
10:37AM 39.0442 -87.3667 151° Southeast 483 556 28,600 1,140 Climbing Indianapolis Center
10:38AM 38.9242 -87.2797 151° Southeast 490 564 30,400 1,680 Climbing Indianapolis Center
10:39AM 38.8044 -87.1931 151° Southeast 492 566 32,100 1,140 Climbing Indianapolis Center
10:40AM 38.6797 -87.1047 151° Southeast 503 579 32,800 720 Climbing Indianapolis Center
10:41AM 38.5486 -87.0103 151° Southeast 526 605 33,600 1,020 Climbing Indianapolis Center
10:42AM 38.4153 -86.9158 151° Southeast 533 613 35,000 1,140 Climbing Indianapolis Center
10:43AM 38.2797 -86.8194 151° Southeast 540 621 36,000 840 Climbing Indianapolis Center
10:44AM 38.1172 -86.7075 152° Southeast 546 628 36,800 720 Climbing Indianapolis Center
10:45AM 37.9800 -86.6108 151° Southeast 556 640 37,600 900 Climbing Indianapolis Center
10:46AM 37.8417 -86.5142 151° Southeast 562 647 38,700 1,620 Climbing Indianapolis Center
10:47AM 37.7061 -86.4219 152° Southeast 510 587 41,000 1,080 Climbing Indianapolis Center
10:48AM 37.5825 -86.3356 151° Southeast 505 581 41,000  Level Indianapolis Center
10:49AM 37.4567 -86.2486 151° Southeast 501 577 41,000  Level Indianapolis Center
10:50AM 37.3378 -86.1681 152° Southeast 491 565 41,000  Level Indianapolis Center
10:51AM 37.2167 -86.0853 151° Southeast 489 563 41,000  Level Indianapolis Center
10:52AM 37.0958 -86.0031 152° Southeast 489 563 41,000  Level Indianapolis Center
10:53AM 36.9769 -85.9231 152° Southeast 478 550 41,000  Level Indianapolis Center
10:55AM 36.8581 -85.8417 151° Southeast 478 550 41,000  Level Indianapolis Center
10:55AM 36.7783 -85.7875 151° Southeast 480 552 41,000  Level Indianapolis Center
10:57AM 36.6333 -85.6897 152° Southeast  Level FlightAware Approximate
10:58AM 36.4658 -85.5800 152° Southeast 484 557 41,000  Level Atlanta Center
10:59AM 36.3436 -85.4975 151° Southeast 489 563 41,000  Level Atlanta Center
11:00AM 36.2258 -85.4208 152° Southeast 484 557 41,000 60 Level Atlanta Center
11:01AM 36.1078 -85.3444 152° Southeast 484 557 41,200 540 Climbing Atlanta Center
11:02AM 35.9917 -85.2681 152° Southeast 484 557 42,100 660 Climbing Atlanta Center
11:03AM 35.8736 -85.1944 153° Southeast 479 551 42,600 420 Climbing Atlanta Center
11:04AM 35.7531 -85.1186 153° Southeast 479 551 43,000 180 Climbing Atlanta Center
11:05AM 35.6369 -85.0403 151° Southeast 479 551 43,000  Level Atlanta Center
11:06AM 35.5167 -84.9597 151° Southeast 484 557 43,000  Level Atlanta Center
11:07AM 35.3983 -84.8822 152° Southeast 484 557 43,000  Level Atlanta Center
11:08AM 35.2797 -84.8069 153° Southeast 484 557 43,000  Level Atlanta Center
11:09AM 35.1614 -84.7297 152° Southeast 484 557 43,000  Level Atlanta Center
11:10AM 35.0450 -84.6553 152° Southeast 484 557 43,000  Level Atlanta Center
11:11AM 34.9264 -84.5808 153° Southeast 484 557 43,000  Level Atlanta Center
11:12AM 34.7994 -84.4942 151° Southeast 484 557 43,000  Level Atlanta Center
11:13AM 34.6806 -84.4178 152° Southeast 479 551 43,000  Level Atlanta Center
11:14AM 34.5661 -84.3464 153° Southeast 471 542 43,000  Level Atlanta Center
11:15AM 34.4597 -84.2806 153° Southeast 471 542 43,000  Level Atlanta Center
11:16AM 34.3431 -84.2072 153° Southeast 471 542 43,000  Level Atlanta Center
11:17AM 34.2264 -84.1317 152° Southeast 471 542 43,000  Level Atlanta Center
11:18AM 34.1072 -84.0564 152° Southeast 471 542 43,000  Level Atlanta Center
11:19AM 33.9800 -83.9786 153° Southeast 471 542 43,000  Level Atlanta Center
11:20AM 33.8631 -83.9086 154° Southeast 471 542 43,000  Level Atlanta Center
11:21AM 33.7481 -83.8364 152° Southeast 471 542 43,000  Level Atlanta Center
11:22AM 33.6333 -83.7669 153° Southeast 471 542 43,000 -720 Level Atlanta Center
11:23AM 33.5183 -83.6975 153° Southeast 471 542 41,600 -2,040 Descending Atlanta Center
11:24AM 33.4033 -83.6283 153° Southeast 465 535 39,000 -2,640 Descending Atlanta Center
11:25AM 33.2797 -83.5517 153° Southeast 481 554 36,400 -2,400 Descending Atlanta Center
11:26AM 33.1625 -83.4831 154° Southeast 499 574 34,200 -2,460 Descending Atlanta Center
11:27AM 33.0369 -83.4044 152° Southeast 517 595 31,500 -2,400 Descending Atlanta Center
11:28AM 32.9050 -83.3239 153° Southeast 517 595 29,500 -1,620 Descending Atlanta Center
11:29AM 32.7731 -83.2433 153° Southeast 517 595 28,300 -780 Descending Atlanta Center
11:30AM 32.6472 -83.1681 153° Southeast 512 589 28,000 -180 Descending Atlanta Center
11:31AM 32.5194 -83.0906 153° Southeast 512 589 28,000  Level Atlanta Center
11:32AM 32.3336 -82.9786 153° Southeast 508 585 28,000 -600 Level Jacksonville Center
11:33AM 32.2083 -82.9047 153° Southeast 508 585 26,600 -1,020 Descending Jacksonville Center
11:34AM 32.0850 -82.8314 153° Southeast 503 579 26,000 -300 Descending Jacksonville Center
11:35AM 31.9619 -82.7603 154° Southeast 497 572 26,000 -60 Level Jacksonville Center
11:36AM 31.8364 -82.6872 154° Southeast 497 572 25,900 -1,200 Descending Jacksonville Center
11:37AM 31.7172 -82.6142 152° Southeast 486 559 23,700 -1,500 Descending Jacksonville Center
11:38AM 31.5981 -82.5536 157° South 475 547 23,000 -1,560 Descending Jacksonville Center
11:39AM 31.4811 -82.4931 156° South 465 535 20,600 -2,580 Descending Jacksonville Center
11:40AM 31.3722 -82.4353 156° South 452 520 17,900 -2,760 Descending Jacksonville Center
11:42AM 31.1903 -82.3414 156° South 411 473 13,600 -2,100 Descending Jacksonville Center
11:43AM 31.0711 -82.2814 157° South 406 467 12,100 -780 Descending Jacksonville Center
11:44AM 30.9642 -82.2142 152° Southeast 404 465 11,900 -600 Descending Jacksonville Center
11:45AM 30.9011 -82.1444 136° Southeast 332 382 11,000 -1,260 Descending Jacksonville Center
11:46AM 30.8089 -82.0725 146° Southeast 344 396 9,200 -1,260 Descending Jacksonville Center
11:47AM 30.7417 -82.0200 146° Southeast 306 352 8,200 -1,080 Descending Jacksonville Center
11:48AM 30.6892 -81.9794 146° Southeast 297 342 7,300 -1,140 Descending Jacksonville Center
11:49AM 30.6219 -81.9269 146° Southeast 290 334 6,200 -1,200 Descending Jacksonville Center
11:50AM 30.5381 -81.8700 150° Southeast 287 330 4,700 -1,200 Descending Jacksonville Center
11:50AM 30.5381 -81.8700 150° Southeast 284 327 4,800 -720 Climbing Jacksonville Center
11:51AM 30.4608 -81.8708 181° South 272 313 4,000 -660 Descending Jacksonville Center
11:52AM 30.4064 -81.8739 183° South 242 278 3,600 -1,080 Descending Jacksonville Center
11:53AM 30.3292 -81.8744 180° South 245 282 2,000 -1,080 Descending Jacksonville Center
11:54AM 30.2792 -81.8631 169° South 156 180 1,400 -540 Descending Jacksonville Center
11:55AM 30.2372 -81.8492 164° South 142 163 900 -480 Descending Jacksonville Center
11:57AM 30.2167 -81.8667 257° West  Level FlightAware Approximate
12:04PM 30.2188 -81.8772 257° West  Level Estimated